Regional Weather Roundup
Issued by NWS Newport/Morehead, NC

Current Version | Previous Version | Text Only | Print | Product List | Glossary On
Versions: 1 2 3 4 5 6 7 8 9 10 11 12 13 14 15 16 17 18 19 20 21 22 23 24 25 26 27 28 29 30 31 32 33 34 35 36 37 38 39 40 41 42 43 44 45 46 47 48 49 50
259 ASUS42 KMHX 180325 RWRMHX WEATHER ROUNDUP FOR EASTERN NORTH CAROLINA NATIONAL WEATHER SERVICE NEWPORT/MOREHEAD CITY NC 1100 PM EDT TUE OCT 17 2017 NOTE: "FAIR" INDICATES FEW OR NO CLOUDS BELOW 12,000 FEET WITH NO SIGNIFICANT WEATHER AND/OR OBSTRUCTIONS TO VISIBILITY NCZ015>017-031-032-045>047-102-103-180400- NORTH COAST CITY SKY/WX TMP DP RH WIND PRES REMARKS EDENTON CLEAR 47 44 87 CALM 30.35S ELIZABETH CITY CLEAR 53 47 79 N12 30.34R KITTY HAWK PTCLDY 57 46 64 CALM 30.30S MANTEO CLEAR N/A N/A N/A NE8 30.32S $$ NCZ045>047-081-094-103-104-180400- CENTRAL COAST CITY SKY/WX TMP DP RH WIND PRES REMARKS FRISCO PTCLDY 61 51 70 NE8G20 30.28R $$ NCZ095-097-098-100-101-180400- SOUTHERN COAST CITY SKY/WX TMP DP RH WIND PRES REMARKS BEAUFORT CLEAR 53 49 86 N8 30.29F CEDAR ISLAND NOT AVBL JACKSONVILLE CLEAR 51 46 83 N7 30.30F PINEY ISLAND N/A N/A N/A N/A N14 30.29S WILMINGTON CLEAR 50 44 80 N7 30.30S $$ NCZ011>013-027>030-043-044-078>080-089-090>093-098-180400- COASTAL PLAIN CITY SKY/WX TMP DP RH WIND PRES REMARKS AHOSKIE CLEAR 42 42 99 CALM 30.36S CLINTON CLEAR 49 46 88 CALM 30.33S ELIZABETHTOWN NOT AVBL GOLDSBORO CLEAR 51 43 72 NE5 30.32S GREENVILLE CLEAR 43 41 93 CALM 30.34S HAVELOCK NOT AVBL KENANSVILLE CLEAR 45 41 87 CALM 30.33S KINSTON CLEAR 44 42 95 CALM 30.34S NEW BERN CLEAR 53 44 71 NE8 30.33S RICHLANDS CLEAR 45 45 100 CALM 30.32S ROCKY MOUNT CLEAR 45 44 97 CALM 30.35S WASHINGTON CLEAR 47 43 85 N3 30.34S WHITEVILLE CLEAR 49 46 90 CALM 30.31S $$ AMZ130-135-150-152-154-156-158-170-250-252-270-ANZ085-086-088-633-658-670-180400- MARINE OBSERVATIONS STATION/POSITION TIME TEMP WIND PRES WAVE SWELL AIR SEA DIR/SP/G HT/PER HT/PER (UTC) (F) (DEG/KT/KT) (MB) (FT/S) (FT/S) CHESAPEAKE LIGHT NOT AVBL 64 E VA BEACH 0250 60 67 40/ 10/ 12 1026.8 5/ 8 5/ 8 DUCK 0300 60 68 30/ 12/ 15 1026.2 2 E DUCK 0300 70 N/A 4/ 7 2/12 OREGON INLET 0300 60 65 360/ 9/ 14 1026.0 13E OREGON INLT 0248 71 N/A 5/ 8 5/ 8 HATTERAS CG 0300 62 68 30/ 13/ 19 1025.1 DIAMOND BUOY 0250 66 81 20/ 17/ 25 1024.1 6/ 9 5/ 9 CAPE LOOKOUT 0300 58 360/ 13/ 16 1025.0 BEAUFORT LAB 0300 57 71 360/ 10/ 12 1025.9 30 SE NEW RVR IN 0308 64 40/ 17/ 25 1024.7 30 SE NEW RVR IN NOT AVBL 27 SE WRIGHTSVLE 0308 65 77 60/ 16/ 23 1024.9 5 SE WRIGHTSVLE 0308 63 75 50/ 17/ 25 1025.6 225 S CAPE HAT 0250 75 79 40/ 19/ 23 1019.8 10/ 9 7/ 9 41 SE CHARLESTON 0310 70 80 40/ 21/ 27 1022.8 $$

USA.gov is the U.S. government's official web portal to all federal, state and local government web resources and services.